Powrót do katalogu

SL-14 DEB

AktywnyPO
NORAD 45652·DEBRIS·🇷🇺 Russia

Wystrzelony Aug 15, 1991 z Plesetsk Cosmodrome

Loading…

Następne Przeloty (najbliższe 24 godziny)

TLE

ŚwieżeSource: Space-Track

Epoka: Sep 12, 2026, 04:12 UTC

1 45652U 91056CW  26255.17558568  .00000349  00000-0  77832-3 0  9994
2 45652  82.5504  58.0292 0030818 164.2459 195.9634 13.24575786310363

Śledź SL-14 DEB w czasie rzeczywistym z AllMySat

Download on the App Store